408  
ASUS42 KILM 270413  
RWRILM  
RWRILM  
REGIONAL HOURLY WEATHER ROUNDUP  
NATIONAL WEATHER SERVICE WILMINGTON NC  
1200 AM EDT THU JUL 27 2017  
 
NOTE: "FAIR" INDICATES FEW OR NO CLOUDS BELOW 12,000 FEET WITH NO  
SIGNIFICANT WEATHER AND/OR S TO VISIBILITY
.  
   
..............WFO WILMINGTON COUNTY WARNING AREA............
 
 
   
.....COASTAL NC AND SC COUNTIES...
 
 
 
CITY SKY/WX TMP DP RH WIND PRES REMARKS
 
WILMINGTON CLEAR 74 70 87 E3 30.10S  
N MYRTLE BEACH PTCLDY 79 72 79 E9 30.09S  
MYRTLE BEACH MOCLDY 80 73 79 E8 30.10F  
   
.....INLAND NC AND SC COUNTIES....
 
 
 
CITY SKY/WX TMP DP RH WIND PRES REMARKS
 
LUMBERTON CLEAR 73 69 87 CALM 30.10R  
ELIZABETHTOWN NOT AVBL  
WHITEVILLE CLEAR 73 70 90 CALM 30.10S  
FLORENCE CLEAR 75 74 96 CALM 30.10S  
DARLINGTON CLEAR 76 73 91 S3 30.11S  
KINGSTREE FAIR 72 70 94 CALM 30.10S FOG  
HARTSVILLE FAIR 73 72 94 CALM 30.11R  
BENNETTSVILLE FAIR 73 72 94 CALM 30.10S  
CONWAY FAIR 72 72 100 CALM 30.10F FOG  
GEORGETOWN FAIR 77 77 100 E3 30.10S  
MARION FAIR 72 70 94 CALM 30.10S  
   
...................REST OF NORTH CAROLINA...................
 
 
   
........EASTERN NC......
 
 
 
CITY SKY/WX TMP DP RH WIND PRES REMARKS
 
CAPE HATTERAS CLEAR 74 69 85 NE6 30.11F  
JACKSONVILLE CLEAR 69 67 93 CALM 30.11F  
MOREHEAD CITY CLEAR 73 71 93 CALM 30.10F  
KENANSVILLE CLEAR 70 68 94 CALM 30.11F  
NEW BERN CLEAR 71 69 93 CALM 30.12F  
ELIZABETH CITY CLEAR 74 68 81 SE7 30.12S  
   
........CENTRAL NC......
 
 
 
CITY SKY/WX TMP DP RH WIND PRES REMARKS
 
RALEIGH DURHAM MOCLDY 80 69 69 S7 30.11R  
ROCKY MOUNT CLEAR 73 69 87 S3 30.11S  
ROANOKE RAPIDS NOT AVBL  
FAYETTEVILLE PTCLDY 77 70 79 S5 30.10S  
HOFFMAN MOCLDY 77 68 75 S7 30.11R  
   
........WESTERN NC......
 
 
 
CITY SKY/WX TMP DP RH WIND PRES REMARKS
 
CHARLOTTE PTCLDY 78 73 84 S6 30.11S  
GREENSBORO MOCLDY 76 71 85 CALM 30.11F  
HICKORY NOT AVBL  
BOONE NOT AVBL  
ASHEVILLE NOT AVBL  
   
....................REST OF SOUTH CAROLINA..................
 
 
   
........EASTERN SC......
 
 
 
CITY SKY/WX TMP DP RH WIND PRES REMARKS
 
CHARLESTON MOCLDY 77 75 93 NE5 30.08S  
BEAUFORT MCAS CLOUDY 80 76 87 SE3 30.07F  
HILTON HEAD PTCLDY 79 75 89 VRB5 30.07F  
   
........CENTRAL SC......
 
 
 
CITY SKY/WX TMP DP RH WIND PRES REMARKS
 
COLUMBIA PTCLDY 78 73 84 E5 30.09S  
ORANGEBURG CLEAR 76 73 91 CALM 30.10S  
SUMTER SHAW CLEAR 76 73 90 CALM 30.08R  
   
........WESTERN SC......
 
 
 
CITY SKY/WX TMP DP RH WIND PRES REMARKS
 
GREENVILLE NOT AVBL  
ROCK HILL MOCLDY 76 73 91 S5 30.12S  
ANDERSON CLEAR 75 72 90 SW3 30.12S  
CLEMSON NOT AVBL  
GREENWOOD CLEAR 73 70 90 CALM 30.13R  
 
   
..................COASTAL AND OFFSHORE REPORTS...............
 
 
   
...............LOCAL PIERS AND NC RESERVE.............
 
 
 
STATION/POSITION TIME SKY/WX TEMP WIND PRES VSBY
 
AIR SEA DIR/SP/G  
(UTC) (F) (DEG/KT/KT) (MB) (MI)  
JOHNY MRCER PIER 0342 80 83 90/ 14/ 15 1018.3F  
NC RESRV MASNBRO NOT AVBL  
OCEAN CREST PIER NOT AVBL  
SPRINGMAID PIER 0342 1018.4S  
 
   
...............COASTAL AND OFFSHORE BUOYS.............
 
 
 
STATION/POSITION TIME SKY/WX TEMP WIND PRES VSBY
 
AIR SEA DIR/SP/G  
(UTC) (F) (DEG/KT/KT) (MB) (MI)  
DIMNDSHOAL 41025 0350 80 83 80/ 6/ 8 1019.2S  
WVE H/P(F/S)= 3/ 7 SWL H/P/D(F/S/D)= 3/ 40/ 7  
 
CAPE LOOKOUT 0400 79 90/ 9/ 10 1018.9F  
ONSLOW BAY 41036 NOT AVBL  
ONSLOW BAY 41064 0308 80 84 90/ 14/ 17 1019.0F  
ONSLOW BAY 41159 0343 84 N/A  
WVE H/P(F/S)= 3/ 5  
 
MASNBO INL 41110 0359 81 N/A  
WVE H/P(F/S)= 3/ 5  
 
WILM HARBR 41108 0400 81 N/A  
WVE H/P(F/S)= 3/ 5  
 
27SE WRITB 41037 0308 81 82 100/ 14/ 19 1018.6S  
FRYING PAN 41013 0400 82 82 80/ 14/ 16 1018.3  
SUNST NRSH 41024 0308 80 82 110/ 10/ 14 1018.7R  
CAPRS NRSH 41029 0308 79 84 90/ 8/ 10 1018.3R  
EDISTO 41004 0400 80 82 140/ 4/ 4 1017.9  
 
   
.........OFFSHORE BUOYS BEYOND 100 NM OFFSHORE........
 
   
....IN A TRIANGLE---HAT TO BERMUDA TO BAHAMAS TO HAT..
 
 
 
 
STATION/POSITION TIME SKY/WX TEMP WIND PRES VSBY
 
AIR SEA DIR/SP/G  
(UTC) (F) (DEG/KT/KT) (MB) (MI)  
150E HAT 41001 0400 79 81 30/ 10/ 12 1019.0  
W BERMUDA 41048 0400 82 84 210/ 2/ 4 1018.0  
ATLANTIC S 41049 0350 81 84 130/ 6/ 10 1019.8F  
WVE H/P(F/S)= 4/ 7 SWL H/P/D(F/S/D)= 3/140/ 7  
 
E BAHAMAS 41046 0400 83 84 100/ 10/ 14 1017.6  
NE BAHAMAS 41047 0400 84 85 110/ 8/ 10 1018.9  
120E CANVRL41010 0400 85 85 150/ 8/ 10 1018.0  
 
END  
 
 
CLICK HERE TO GO TO PREVIOUS BULLETINS.

The Nexlab NC Page
The Nexlab SC Page Main Text Page